Location: La Brionne
(46.1728°N, 1.7849°E)
Time: 20:15:27
(UTC+00:00)

USA 267 - Pass Details

Date: 30 October 2021
Orbit: 1101 x 1107 km, 123.0° (Epoch: 27 November)

Event Time Altitude Azimuth Distance (km) Brightness Sun altitude
Exits shadow 20:39:54 19° 234° (SW) 2,365 5.2 -41.1°
Maximum altitude 20:40:11 19° 238° (WSW) 2,363 5.2 -41.1°
Drops below altitude 10° 20:44:34 10° 281° (W) 2,960 6.1 -41.8°
Sets 20:47:58 0° 298° (WNW) 3,922 7.0 -42.3°
